www.pogodaiklimat.ru

Погода и климат >> Архив погоды >> Мексика >> Ejido Nuevo Leon


ПОГОДА в Ejido Nuevo Leon

  • Прогноз погоды в Ejido Nuevo Leon
  • Монитор погоды в Ejido Nuevo Leon
  • Климат города

АРХИВ ПОГОДЫ в Ejido Nuevo Leon

Время (UTC), дата Ветер
(напр.,м/с)
 
Видим.   Явления Облачность Т
(С)
Тd
(С)
f
(%)
Тe
(С)
Тes
(С)
Комфортность P
(гПа)
Po
(гПа)
Тmin
(С)
Tmax
(С)
R
(мм)
R24
(мм)
S
(см)
09 18.06 ЮВ 1 2000 м ясно +20.6 +12.4 59 +24 +24 комфорт 1008.9 1007.6
12 18.06 СЗ 1 2000 м ясно +17.0 +12.6 75 +18 +18 1009.9 1008.6 +16.5 +36.3
15 18.06 С 2 10 км ясно +22.3 +11.3 50 +24 +30 комфорт 1011.7 1010.4
18 18.06 С 2 10 км ясно +29.4 +14.1 39 +31 +50 жарко 1012.2 1010.9 +16.5 +30.3
21 18.06 СЗ 3 10 км ясно +33.8 +13.3 29 +35 +51 опасность
солнечного
удара
1010.3 1009.0
00 19.06 С 2 10 км ясно +36.0 +15.3 29 +38 +44 очень
душно
1008.5 1007.2 +16.5 +37.0
03 19.06 ЮЗ 1 10 км ясно +33.6 +16.6 36 +36 +36 очень
душно
1008.1 1006.8
06 19.06 Ю 1 2000 м ясно +26.2 +16.5 55 +30 +30 душно 1008.8 1007.5 +16.5 +37.0
09 19.06 СВ 2 2000 м ясно +22.6 +11.9 51 +25 +25 комфорт 1008.8 1007.5
12 19.06 В 2 2000 м ясно +18.2 +12.4 69 +19 +19 1009.7 1008.4 +17.0 +37.0
15 19.06 В 1 10 км ясно +24.0 +14.9 57 +27 +33 жарко 1011.2 1009.9
18 19.06 В 1 10 км ясно +34.0 +17.9 38 +38 +60 опасность
солнечного
удара
1011.1 1009.8 +34.1
21 19.06 В 2 10 км ясно +38.3 +17.6 30 +41 +61 опасность
перегрева
1009.6 1008.3
00 20.06 ЮВ 1 10 км ясно +40.5 +21.5 34 +48 +55 опасность
перегрева
1008.0 1006.7 +17.0 +40.7
03 20.06 ЮВ 2 2000 м ясно +35.0 +15.6 31 +37 +37 очень
душно
1007.5 1006.2
06 20.06 Ю 2 2000 м ясно +27.7 +17.4 53 +32 +32 очень
душно
1008.1 1007.1 +17.0 +40.7
09 20.06 ЮВ 2 2000 м ясно +23.2 +16.9 68 +28 +28 душно 1008.1 1006.8
12 20.06 ЮВ 1 2000 м ясно +20.8 +17.2 80 +26 +26 душно 1008.8 1007.5 +20.3 +40.7
15 20.06 В 1 10 км ясно +24.6 +17.5 65 +29 +35 душно 1010.3 1009.0
18 20.06 ЮВ 2 10 км ясно +35.2 +21.7 46 +43 +62 опасность
перегрева
1010.7 1009.4 +20.3 +36.4
21 20.06 В 3 10 км ясно +41.2 +20.7 31 +36 +53 опасность
солнечного
удара
1008.8 1007.5
00 21.06 ЮВ 4 10 км ясно +41.4 +18.6 27 +45 +50 опасность
перегрева
1007.2 1005.9 +20.3 +42.4
03 21.06 ЮВ 2 10 км ясно +33.0 +19.7 46 +39 +39 очень
душно
1007.8 1006.5
06 21.06 ЮВ 2 2000 м ясно +26.0 +21.5 76 +33 +33 очень
душно
1008.6 1007.3 +20.3 +42.4
09 21.06 ЮВ 1 2000 м ясно +21.6 +18.4 82 +26 +26 душно 1008.6 1007.3
12 21.06 ЮВ 1 2000 м ясно +20.0 +16.7 81 +24 +24 комфорт 1009.4 1008.1 +18.8 +42.4
15 21.06 ЮВ 3 10 км ясно +24.0 +19.3 75 +29 +33 душно 1010.9 1009.6
18 21.06 ЮВ 2 10 км ясно +33.2 +21.0 49 +41 +59 опасность
перегрева
1010.9 1009.6 +18.8 +38.4
21 21.06 В 3 10 км ясно +39.8 +16.6 26 +42 +58 опасность
перегрева
1008.8 1007.5
00 22.06 ЮВ 2 10 км ясно +42.4 +15.3 21 +44 +50 опасность
перегрева
1006.7 1005.4 +18.8 +42.8
03 22.06 ЮВ 2 2000 м ясно +35.4 +18.9 38 +40 +40 очень
душно
1006.0 1004.7
06 22.06 ЮВ 3 2000 м ясно +27.6 +20.0 63 +34 +34 очень
душно
1006.6 1005.3 +18.8 +42.8
09 22.06 С 1 2000 м ясно +23.0 +17.5 71 +28 +28 душно 1006.5 1005.2
12 22.06 ЮВ 2 2000 м ясно +21.8 +17.8 78 +26 +26 душно 1006.4 1005.1 +21.0 +42.8
15 22.06 ЮВ 2 10 км ясно +26.6 +16.2 53 +30 +35 душно 1007.8 1006.5
21 22.06 В 4 10 км ясно +42.2 +24.3 37 +54 +67 опасность
перегрева
1005.6 1004.3
00 23.06 ЮВ 3 10 км ясно +42.8 +22.6 32 +51 +56 опасность
перегрева
1003.2 1001.9 +21.0 +44.2
03 23.06 ЮВ 3 10 км ясно +35.4 +23.7 51 +47 +47 опасность
перегрева
1002.5 1001.3
06 23.06 ЮВ 2 2000 м ясно +27.2 +19.5 63 +33 +33 очень
душно
1003.7 1002.4 +21.0 +44.2
09 23.06 ЮВ 2 2000 м ясно +24.7 +19.3 72 +30 +30 очень
душно
1003.4 1002.1
12 23.06 ЮВ 1 2000 м ясно +21.2 +18.0 82 +25 +25 комфорт 1004.4 1003.1 +20.7 +44.2
15 23.06 ЮВ 3 10 км ясно +26.8 +23.3 81 +36 +40 очень
душно
1006.5 1005.2
18 23.06 ЮВ 6 10 км ясно +33.0 +22.9 55 +43 +50 опасность
перегрева
1007.1 1005.8 +20.7 +33.5
21 23.06 ЮВ 6 10 км ясно +35.6 +20.1 40 +41 +49 опасность
перегрева
1006.0 1004.7
00 24.06 ЮВ 6 10 км ясно +36.0 +17.5 34 +39 +42 очень
душно
1004.2 1002.9 +20.7 +37.3
03 24.06 ЮВ 3 10 км ясно +30.6 +21.7 59 +39 +39 очень
душно
1004.0 1002.7
06 24.06 ЮВ 2 2000 м ясно +26.4 +21.6 75 +34 +34 очень
душно
1005.1 1003.8 +37.3
09 24.06 В 1 2000 м ясно +23.4 +20.0 81 +30 +30 очень
душно
1005.7 1004.4
12 24.06 ЮВ 1 2000 м ясно +21.2 +18.3 84 +25 +25 комфорт 1006.7 1005.4 +20.7 +37.5
15 24.06 В 2 10 км ясно +27.6 +18.2 57 +32 +37 очень
душно
1009.0 1007.7
18 24.06 В 2 10 км ясно +33.2 +21.0 49 +41 +59 опасность
перегрева
1010.0 1008.7 +20.4 +37.5
21 24.06 В 2 10 км ясно +38.8 +15.5 25 +40 +60 опасность
солнечного
удара
1008.8 1007.5
00 25.06 ЮВ 2 10 км ясно +41.1 +16.7 24 +43 +50 опасность
перегрева
1006.5 1005.2 +20.4 +41.1
03 25.06 ЮВ 3 10 км ясно +32.8 +18.7 43 +38 +38 очень
душно
1006.1 1004.8
06 25.06 В 2 200 м ясно +26.2 +19.7 67 +32 +32 очень
душно
1007.3 1006.0 +20.4 +41.1

 

Местоположение метеостанции Ejido Nuevo Leon (Мексика): широта 32.40 долгота -115.10 высота над уровнем моря 11 м.

В архиве по умолчанию представлена погода в Ejido Nuevo Leon за последнюю неделю. Архивные данные за месяц целиком и за предыдущие месяцы, начиная с января 2011 года, Вы можете получить, выбрав интересующий диапазон дат из раскрывающегося списка и нажав кнопку "Ввод!".


*Определитесь, кто Вы:
робот инопланетянин человек

Внимание! Время в таблицах - всемирное. Для получения местного времени необходимо прибавить поправку, которая в Ejido Nuevo Leon равна -8 ч.

Смотрите также архив погоды в соседних городах и на ближайших метеорологических станциях:

Погода в San Felipe (Мексика) (155 км)
Погода в Puerto Penasco (Мексика) (191 км)
Погода в Altar Son (Мексика) (362 км)
Погода в Hermosillo (Мексика) (534 км)
Погода в Hermosillo la Magna (Мексика) (542 км)
Погода в Pilares de Nacoz (Мексика) (562 км)
Погода в Santa Rosalia (Мексика) (632 км)
Погода в Guaymas (Мексика) (643 км)
Погода в Empalme (Мексика) (651 км)
Погода в Nueva Casas Grandes (Мексика) (720 км)

Пояснения к столбцам:

Ветер - указаны скорость ветра в м/с - средняя за 10 мин, порывы в срок и между сроками (в фигурных скобках) и направление, откуда дует ветер: С - северный, СВ - северо-восточный, В - восточный, ЮВ - юго-восточный, Ю - южный, ЮЗ - юго-западный, З - западный, СЗ - северо-западный.
Видимость - горизонтальная дальность видимости в метрах или километрах. При видимости от 1 до 10 км при отсутствии осадков обычно наблюдается дымка, при ухудшении видимости до 1 км и менее - туман. В сухую погоду видимость может ухудшаться дымом, пылью или мглою.
Явления - указаны атмосферные явления, наблюдавшиеся в срок или в последний час перед сроком; фигурными скобками обозначены явления, наблюдавшиеся между сроками (за 1-3 часа до срока); квадратными скобками обозначены град или гололедные отложения с указанием их диаметра в мм.
Облачность - указаны через наклонную черту общая и нижняя облачность в баллах и высота нижней границы облаков в метрах; квадратными скобками обозначены формы облаков: Ci - перистые, Cs - перисто-слоистые, Cc - перисто-кучевые, Ac - высококучевые, As - высокослоистые, Sc - слоисто-кучевые, Ns - слоисто-дождевые, Cu - кучевые, Cb - кучево-дождевые. Подробнее классификацию облаков см. в Атласе облаков (PDF).
T - Температура воздуха - температура, измеренная на высоте 2 м над землей.
Td - Температура точки росы - температура, при понижении до которой содержащийся в воздухе водяной пар достигнет насыщения.
f - Относительная влажность воздуха - влажноcть воздуха, измеренная на высоте 2 м над землей.
Te - Эффективная температура - температура, которую ощущает одетый по сезону человек в тени. Характеристика душности погоды. При расчете учитывается влияние влажности воздуха и скорости ветра на теплоощущения человека.
Tes - Эффективная температура на солнце - температура, которую ощущает человек, с поправкой на солнечный нагрев. Характеристика знойности погоды. Зависит от высоты солнца над горизонтом, облачности и скорости ветра. Ночью, в пасмурную погоду, а также при ветре 12 м/с и более поправка равна нулю.
P - Атмосферное давление - приведенное к уровню моря атмосферное давление.
Po - Атмосферное давление - измеренное на уровне метеостанции атмосферное давление.
Tmin - Минимальная температура - минимум температуры воздуха на высоте 2 м над землей.
Tmax - Максимальная температура - максимум температуры воздуха на высоте 2 м над землей.
R - Количество осадков - Количество выпавших осадков за период времени, мм. При наведении курсора мыши на число - период времени, за который выпало указанное количество осадков.
R24 - Количество осадков - Количество выпавших осадков за 24 часа, мм.
S - Снежный покров - Высота снежного покрова, см. При наведении курсора мыши на число - состояние снежного покрова и степень покрытия местности в баллах.